Torna al catalogo

THORAD AGENA D DEB

AttivoLEO
NORAD 4768·DEBRIS·🇺🇸 United States

Lanciato Apr 8, 1970 da Vandenberg Space Force Base

Loading…

Prossimi Passaggi (prossime 24 ore)

TLE

AggiornatoSource: Space-Track

Epoca: Sep 14, 2026, 03:20 UTC

1 04768U 70025DN  26257.13948813  .00000204  00000-0  27941-3 0  9990
2 04768 100.1571 307.7436 0030899 152.9846 230.0488 13.71794705810059

Traccia THORAD AGENA D DEB in tempo reale con AllMySat

Download on the App Store